SAS381 ENVA-ENGM

Flight info

Callsign SAS381
Flight time N/A
Altitude 31000
Route UTUNA DCT TUTBI DCT BELGU
Aircraft B737/M-SDE2E3FGHIRWXY/LB1

Departure

Time 2026-05-04 17:41
Airport Trondheim Airport, Værnes (ENVA)

Arrival

Time N/A
Airport Oslo-Gardermoen International Airport (ENGM)
Time Latitude Longitude Altitude Speed Heading
2026-05-04 17:10 63.45497 10.91907 38 ft 0 kts 180°
2026-05-04 17:32 63.45499 10.91907 38 ft 3 kts 180°
2026-05-04 17:33 63.45541 10.91907 35 ft 0 kts 180°
2026-05-04 17:36 63.45539 10.91908 35 ft 1 kts 175°
2026-05-04 17:36 63.45536 10.91941 46 ft 3 kts 65°
2026-05-04 17:36 63.45584 10.92050 39 ft 13 kts 58°
2026-05-04 17:36 63.45595 10.92244 40 ft 13 kts 90°
2026-05-04 17:37 63.45594 10.92437 41 ft 12 kts 90°
2026-05-04 17:37 63.45594 10.92626 42 ft 12 kts 90°
2026-05-04 17:37 63.45595 10.92809 45 ft 12 kts 89°
2026-05-04 17:37 63.45596 10.92989 48 ft 11 kts 90°
2026-05-04 17:38 63.45594 10.93200 51 ft 14 kts 91°
2026-05-04 17:38 63.45594 10.93412 54 ft 13 kts 91°
2026-05-04 17:38 63.45592 10.93612 51 ft 13 kts 91°
2026-05-04 17:38 63.45600 10.93807 53 ft 13 kts 72°
2026-05-04 17:39 63.45728 10.94113 58 ft 12 kts 26°
2026-05-04 17:39 63.45760 10.94021 58 ft 0 kts 269°
2026-05-04 17:41 63.45760 10.94019 58 ft 2 kts 269°
2026-05-04 17:41 63.45758 10.93465 52 ft 79 kts 270°
2026-05-04 17:41 63.45763 10.91665 126 ft 144 kts 270°
2026-05-04 17:41 63.45785 10.89257 835 ft 164 kts 272°
2026-05-04 17:42 63.45844 10.86607 1825 ft 176 kts 274°
2026-05-04 17:42 63.45936 10.83828 2800 ft 181 kts 275°
2026-05-04 17:42 63.46012 10.80976 3786 ft 189 kts 274°
2026-05-04 17:42 63.46097 10.77967 4687 ft 204 kts 275°
2026-05-04 17:43 63.46178 10.74699 5531 ft 223 kts 273°
2026-05-04 17:43 63.46026 10.71067 6315 ft 244 kts 256°
2026-05-04 17:43 63.45125 10.67630 7081 ft 271 kts 230°
2026-05-04 17:43 63.43492 10.65214 7889 ft 299 kts 205°
2026-05-04 17:44 63.41546 10.63834 9426 ft 285 kts 201°
2026-05-04 17:44 63.39680 10.62681 10865 ft 278 kts 200°
2026-05-04 17:44 63.37763 10.61501 11491 ft 300 kts 199°
2026-05-04 17:44 63.35747 10.60489 11753 ft 293 kts 197°
2026-05-04 17:45 63.33802 10.59524 11868 ft 282 kts 198°
2026-05-04 17:45 63.31886 10.58648 11793 ft 280 kts 189°
2026-05-04 17:45 63.29929 10.58994 11287 ft 290 kts 167°
2026-05-04 17:45 63.28168 10.61175 10966 ft 293 kts 139°
2026-05-04 17:46 63.26958 10.64704 10840 ft 285 kts 117°
2026-05-04 17:46 63.26311 10.68860 10384 ft 288 kts 99°
2026-05-04 17:46 63.26264 10.73374 9610 ft 301 kts 76°
2026-05-04 17:46 63.26931 10.77837 8859 ft 306 kts 58°
2026-05-04 17:47 63.28114 10.81652 8237 ft 304 kts 45°
2026-05-04 17:47 63.29546 10.85138 7545 ft 308 kts 40°
2026-05-04 17:47 63.31108 10.88366 6892 ft 303 kts 36°
2026-05-04 17:47 63.32704 10.91310 6391 ft 293 kts 33°
2026-05-04 17:48 63.34304 10.93995 5857 ft 285 kts 31°
2026-05-04 17:48 63.35914 10.96495 5290 ft 278 kts 28°
2026-05-04 17:48 63.37490 10.98814 5072 ft 262 kts 29°
2026-05-04 17:48 63.38924 11.01143 4884 ft 249 kts 33°
2026-05-04 17:49 63.40179 11.03518 4720 ft 229 kts 36°
2026-05-04 17:49 63.41363 11.05823 4082 ft 226 kts 34°
2026-05-04 17:49 63.42543 11.07998 3633 ft 213 kts 33°
2026-05-04 17:49 63.43650 11.10020 3296 ft 195 kts 31°
2026-05-04 17:50 63.44758 11.11083 3081 ft 159 kts 354°
2026-05-04 17:50 63.45674 11.10414 2705 ft 128 kts 311°
2026-05-04 17:50 63.46062 11.08699 2238 ft 129 kts 277°
2026-05-04 17:50 63.46001 11.06689 1863 ft 130 kts 262°
2026-05-04 17:51 63.45815 11.04748 1513 ft 128 kts 261°
2026-05-04 17:51 63.45735 11.03424 1289 ft 127 kts 265°
2026-05-04 17:51 63.45741 11.00851 921 ft 125 kts 271°
2026-05-04 17:51 63.45739 10.98882 648 ft 127 kts 270°
2026-05-04 17:52 63.45748 10.96917 410 ft 126 kts 270°
2026-05-04 17:52 63.45753 10.95009 179 ft 120 kts 269°
2026-05-04 17:52 63.45755 10.93239 47 ft 104 kts 270°
2026-05-04 17:52 63.45758 10.92262 40 ft 81 kts 270°
2026-05-04 17:53 63.45757 10.91571 36 ft 16 kts 255°
2026-05-04 17:53 63.45667 10.91512 37 ft 14 kts 178°
2026-05-04 17:53 63.45599 10.91592 36 ft 9 kts 103°
2026-05-04 17:53 63.45594 10.91728 38 ft 9 kts 90°
2026-05-04 17:54 63.45591 10.91785 38 ft 2 kts 127°
2026-05-04 17:54 63.45550 10.91746 38 ft 10 kts 194°
2026-05-04 17:54 63.45505 10.91745 35 ft 7 kts 180°
2026-05-04 17:54 63.45497 10.91745 36 ft 0 kts 180°